Location: Unspecified
(0.0000°N, 0.0000°E)
Time: 15:31:43
(UTC+00:00)

FENGYUN 1C DEB - Pass Details

Date: 22 February 2026
Orbit: 814 x 927 km, 98.2° (Epoch: 15 July)

Event Time Altitude Azimuth Distance (km) Brightness Sun altitude
Rises 18:42:40 0° 154° (SSE) 3,412 ? -7.2°
Reaches altitude 10° 18:45:09 10° 147° (SSE) 2,485 ? -7.8°
Maximum altitude 18:50:20 41° 77° (ENE) 1,234 ? -9.1°
Drops below altitude 10° 18:55:33 10° 9° (N) 2,517 ? -10.4°
Sets 18:58:04 0° 2° (N) 3,460 ? -11.0°
